Location: Madrid
(40.4000°N, 3.6830°W)
Time: 21:33:55
(UTC+01:00)

ISS - Pass Details

Date: 21 March 2017
Orbit: 402 x 407 km, 51.6° (Epoch: 24 November)

Event Time Altitude Azimuth Distance (km) Brightness Sun altitude
Exits shadow 06:11:38 14° 304° (NW) 1,276 -1.7 -13.1°
Maximum altitude 06:14:27 79° 219° (SW) 437 -3.8 -12.6°
Drops below altitude 10° 06:17:51 10° 132° (SE) 1,511 -0.4 -11.9°
Sets 06:19:56 0° 131° (SE) 2,371 0.7 -11.5°
